Location: Chirac
(45.4500°N, 2.3167°E)
Time: 11:07:41
(UTC+00:00)

Daily predictions for brighter satellites

Satellite Brightness Start Highest point End
(mag) Time Altitude Azimuth Time Altitude Azimuth Time Altitude Azimuth
Cosmos 1697 Rocket 4.2 19:45:58 10° NW 19:51:06 36° WSW 19:56:12 10° S
Cosmos 2058 3.9 19:48:30 10° SSW 19:52:36 54° WNW 19:56:44 10° N
Cosmos 1933 4.3 19:49:05 10° N 19:52:41 30° ENE 19:56:16 10° SE
Cosmos 1271 Rocket 4.0 19:50:28 10° NNE 19:53:54 27° ENE 19:57:20 10° SE
Gbstr 26 Del rocket 2.9 19:50:12 10° WNW 19:53:55 66° NNE 19:57:47 10° ESE
MOS 1 4.3 19:48:55 10° SSE 19:54:33 77° ENE 20:00:13 10° NNW
Cosmos 1538 Rocket 4.0 19:49:55 10° SSW 19:55:06 73° ESE 20:00:16 10° NNE
IRS-1A Rocket 4.3 19:50:31 10° SSE 19:56:01 76° ENE 20:01:32 10° NNW
OBJECT-B 2.2 19:53:47 10° S 19:56:49 39° W 19:59:52 10° NNW
USA 186 3.7 19:57:57 10° SSW 20:00:27 25° W 20:02:49 10° NW
Cosmos 2098 Rocket 2.4 19:57:31 10° S 20:00:42 72° E 20:04:36 10° NNE
IGS 5A 3.8 19:57:01 10° SSE 20:01:01 48° ENE 20:05:02 10° N
ARIANE 5 R/B 4.5 19:59:41 10° ESE 20:02:31 17° ENE 20:05:20 10° NNE
Ariane Rocket 3.0 20:01:34 10° SSE 20:06:39 86° ENE 20:11:44 10° NNW
Landsat 7 4.1 20:03:33 10° SSE 20:08:10 54° ENE 20:12:49 10° N
Cosmos 1782 4.0 20:05:10 10° NNE 20:08:37 27° ENE 20:11:44 12° SE
Cosmos 2082 Rocket 3.3 20:06:20 10° SW 20:11:48 51° WNW 20:17:21 10° NNE
Cosmos 304 Rocket 3.8 20:08:10 10° NNW 20:12:58 72° ENE 20:17:43 10° SSE
Cosmos 2278 4.4 20:13:06 10° NW 20:18:35 52° WSW 20:24:02 10° S
Cosmos 2360 Rocket 3.3 20:14:26 10° N 20:19:25 31° NE 20:23:55 12° ESE
ATLAS 3B R/B 3.3 20:12:26 10° NW 20:19:26 60° WSW 20:26:40 10° SSE
Cosmos 1606 4.0 20:16:25 10° NNW 20:19:59 40° W 20:23:33 10° SSW
Resurs 1-3 4.1 20:16:11 10° S 20:20:31 60° W 20:24:52 10° NNW
ATLAS 2AS CENTAUR R/B 4.3 20:13:09 10° WSW 20:20:40 45° NW 20:28:00 10° NNE
MetOp-B 4.3 20:18:48 10° SSE 20:24:01 60° ENE 20:29:18 10° N
Cosmos 1092 Rocket 4.0 20:19:39 10° S 20:25:49 66° E 20:32:06 10° NNE
Cosmos 2221 4.5 20:23:40 10° NNW 20:27:23 29° W 20:31:07 10° SSW
ISS -2.2 20:27:01 10° W 20:29:54 26° SW 20:32:13 13° SSE
NOSS 2-1 (C) 3.6 20:27:36 10° S 20:30:34 29° ESE 20:33:29 10° ENE
Cosmos 2151 3.0 20:26:28 10° S 20:30:43 83° W 20:35:01 10° N
Cosmos 2026 Rocket 4.1 20:28:37 10° S 20:34:50 62° E 20:41:00 10° NNE
ERS-2 2.5 20:31:16 10° N 20:34:53 66° WNW 20:38:29 10° SSW
Cosmos 2084 3.5 20:32:07 10° SSW 20:36:01 49° ESE 20:40:02 10° NE
COSMOS 2455 4.2 20:34:50 16° SE 20:36:44 18° ESE 20:40:40 10° ENE
Cosmos 158 Rocket 4.4 20:32:19 10° SSW 20:37:28 68° WNW 20:42:46 10° NNE
NOSS 2-1 (D) 3.3 20:35:11 10° S 20:38:18 36° ESE 20:41:22 10° NE
Cosmos 1812 3.8 20:35:20 10° NNE 20:38:43 28° ENE 20:40:31 20° ESE
Cosmos 2333 Rocket 3.7 20:35:49 10° N 20:40:22 24° NE 20:44:24 12° E
Cosmos 1980 Rocket 3.9 20:36:01 10° NW 20:40:43 28° WSW 20:45:26 10° SSW
GP-B 3.3 20:36:22 10° NNE 20:40:44 51° E 20:44:01 17° SSE
Cosmos 923 Rocket 4.0 20:35:54 10° SSW 20:41:14 81° ESE 20:46:36 10° NNE
BREEZE-M DEB (TANK) 3.8 20:38:40 10° WNW 20:42:03 69° SSW 20:49:45 16° SE
SPOT 1/Viking Rocket 3.6 20:38:26 14° SSE 20:42:58 77° ENE 20:48:11 10° N
ERS-1 Rocket 3.8 20:40:25 18° ESE 20:43:36 36° ENE 20:48:10 10° N
USA 245 3.6 20:42:07 17° SSE 20:45:43 64° ENE 20:49:36 10° N
SL-27 R/B 3.4 20:44:42 23° SE 20:45:49 28° ESE 20:48:57 10° NE
Okean 3 Rocket 3.7 20:48:05 16° SSE 20:51:32 55° E 20:55:57 10° NNE
USA 276 3.0 20:49:08 10° WNW 20:52:04 36° SW 20:53:10 26° S
Cosmos 2056 Rocket 3.8 20:47:47 10° NNW 20:53:03 55° ENE 20:56:16 23° SE
Cosmos 2322 Rocket 2.2 20:48:23 10° NNW 20:54:03 85° ENE 20:57:55 21° SSE
Meteor 1-26 Rocket 4.5 20:53:08 10° NNW 20:59:03 73° W 21:04:07 13° S
CARTOSAT-1 3.5 20:59:31 24° SSE 21:02:01 72° ENE 21:06:20 10° N
Spot 2 Rocket 3.5 21:03:04 22° SSE 21:06:24 81° ENE 21:11:32 10° NNW
Cosmos 2219 Rocket 3.3 21:06:26 10° N 21:11:24 32° NE 21:14:26 19° E
Resurs 01 Rocket 3.3 21:09:26 10° SSW 21:13:21 30° W 21:17:18 10° NNW
BREEZE M DEB (TANK) 3.8 21:10:51 10° SW 21:14:28 58° SSE 21:34:23 10° ENE
Cosmos 1371 Rocket 4.0 21:09:31 10° NNW 21:14:55 89° W 21:17:55 27° SSE
Cosmos 1680 Rocket 3.8 21:09:58 10° SSW 21:15:14 70° WNW 21:20:30 10° NNE
Cosmos 2112 Rocket 4.1 21:10:25 10° SSW 21:15:43 80° WNW 21:21:01 10° NNE
Cosmos 1515 Rocket 3.8 21:14:46 10° N 21:19:08 53° ENE 21:20:37 36° SE
Cosmos 1151 Rocket 3.3 21:14:54 10° NNW 21:19:15 65° W 21:21:47 24° S
Terra 2.1 21:19:00 32° SE 21:20:58 54° ENE 21:25:38 10° N
Cosmos 1553 Rocket 3.9 21:16:30 10° N 21:22:37 87° E 21:26:23 25° S
Cosmos 2266 Rocket 4.4 21:19:57 28° SE 21:22:47 45° E 21:28:40 10° NNE
SL-16 R/B 3.0 21:19:14 10° NW 21:24:36 44° WSW 21:28:20 19° S
CZ-2C R/B 4.4 21:23:35 10° N 21:27:58 52° WNW 21:32:15 10° SSW
ATLAS 5 CENTAUR R/B 3.4 21:24:13 10° NNW 21:29:07 34° NE 21:33:06 17° E
Cosmos 2333 4.4 21:25:18 10° NNW 21:30:51 59° ENE 21:33:17 33° SE
Cosmos 1766 Rocket 4.2 21:27:54 13° SSW 21:31:40 53° WNW 21:35:57 10° N
Cosmos 1328 Rocket 3.9 21:28:39 10° NNW 21:33:03 61° W 21:35:09 29° SSW
Cosmos 2228 Rocket 4.0 21:30:31 10° N 21:34:30 32° ENE 21:35:17 30° E
Cosmos 2237 4.5 21:29:15 10° NNW 21:34:53 62° WSW 21:37:45 29° S
NOSS 2-1 (E) 3.5 21:33:14 10° SW 21:36:28 56° NW 21:39:51 10° NNE
SPOT 5 2.7 21:36:48 37° S 21:38:26 72° WSW 21:42:52 10° NNW
ARIANE 5 R/B 3.0 21:36:31 30° SSW 21:38:32 59° W 21:42:55 10° NNW
COSMOS 2428 3.5 21:33:43 10° NNW 21:39:06 41° NE 21:41:31 28° ESE
Gbstr 26 Del rocket 4.2 21:37:20 10° W 21:40:26 24° SW 21:40:43 23° SW
Cosmos 1862 3.5 21:39:48 31° SSW 21:41:33 66° W 21:45:30 10° N
NOSS 3-1 (C) 4.1 21:37:09 10° NW 21:44:40 81° NE 21:49:23 31° SE
Cosmos 292 Rocket 3.7 21:40:56 10° NNW 21:45:44 85° WSW 21:47:10 46° SSE
Cosmos 1048 Rocket 4.4 21:48:39 39° ESE 21:49:02 39° ESE 21:53:47 10° NE
Meteor 2-6 Rocket 4.5 21:44:04 10° NNW 21:49:23 60° W 21:52:01 29° SSW
S3M 4.1 21:48:20 10° N 21:54:45 80° W 21:57:51 33° S
Cosmos 1655 Rocket 4.0 21:54:13 29° S 21:57:44 89° W 22:04:12 10° N
COSMOS 2487 3.2 22:00:10 41° NE 22:00:10 41° NE 22:02:35 10° NNE
USA 229 DEB 4.1 21:53:17 10° NW 22:00:34 67° NE 22:04:27 32° ESE
Cosmos 972 Rocket 3.9 21:59:17 47° SSE 22:00:36 65° ESE 22:05:34 10° NNE
USA 229 4.1 21:53:23 10° NW 22:00:40 66° NE 22:04:33 31° ESE
Cosmos 1805 Rocket 3.8 22:02:11 49° E 22:02:15 49° E 22:06:32 10° NNE
Cosmos 1420 Rocket 4.3 21:57:30 10° NNW 22:02:44 59° WSW 22:04:27 39° SSW
Cosmos 2360 Rocket 2.8 21:58:14 10° NW 22:03:36 47° WSW 22:05:41 32° SSW
Cosmos 1500 Rocket 3.7 22:11:54 53° SW 22:12:49 72° W 22:17:17 10° N
USA 267 3.4 22:07:28 10° ENE 22:13:43 45° SE 22:14:48 42° SSE
NOSS 0 Rocket 4.5 22:10:36 10° NNW 22:16:40 49° NE 22:18:53 34° ESE
NOSS 3-1 (A) 4.1 22:13:37 10° NW 22:21:09 83° NE 22:25:00 38° SE
COSMOS 2455 2.9 22:17:53 22° SW 22:21:56 81° WNW 22:28:00 10° NNE
ERS-1 Rocket 4.4 22:20:25 23° SW 22:22:25 30° W 22:26:50 10° NW
Lacrosse 5 3.5 22:25:49 21° E 22:25:49 21° E 22:27:48 10° ENE
Meteor 1-20 Rocket 4.2 22:23:03 55° SE 22:24:02 65° E 22:29:42 10° NNE
Meteor 1-27 Rocket 3.9 22:18:26 10° NNW 22:24:04 67° W 22:25:47 45° SSW
Cosmos 2333 Rocket 2.3 22:19:31 10° NNW 22:25:07 65° WSW 22:26:23 50° SSW
Cosmos 1452 Rocket 3.5 22:20:04 10° NNW 22:25:20 73° WSW 22:26:16 58° SSW
H-2A R/B 3.8 22:22:16 10° N 22:26:26 62° WNW 22:27:05 54° WSW
COBE Rocket 3.8 22:26:51 61° E 22:27:12 63° ENE 22:31:52 10° N
BREEZE-M R/B 4.0 22:26:12 10° WSW 22:31:57 26° ENE 22:34:01 10° ENE
Cosmos 2297 Rocket 3.4 22:32:07 27° E 22:32:07 27° E 22:36:07 10° NE
Cosmos 2322 3.9 22:26:36 10° NNW 22:32:14 61° WSW 22:33:25 50° SSW
Cosmos 1743 Rocket 4.5 22:32:53 37° WSW 22:34:00 44° WNW 22:38:15 10° N
Sich 1 2.9 22:34:10 81° NE 22:34:10 81° NE 22:38:22 10° N
Cosmos 2322 Rocket 4.4 22:34:19 10° WNW 22:37:17 15° W 22:39:44 11° SW
Cosmos 2237 Rocket 2.9 22:32:30 10° NNW 22:37:57 44° ENE 22:39:29 36° E
Cosmos 1633 Rocket 3.7 22:44:04 44° ENE 22:44:04 44° ENE 22:47:35 10° NNE
BREEZE-M DEB (TANK) 3.5 22:39:43 10° WNW 22:42:20 32° WNW 22:42:20 32° WNW
Cosmos 2227 Rocket 3.5 22:44:30 25° E 22:44:30 25° E 22:48:17 10° NE
Cosmos 1110 Rocket 3.8 22:42:17 10° NNW 22:47:39 88° WSW 22:48:10 73° SSE
USA 234 3.8 22:42:59 18° E 22:47:46 54° NNE 22:54:07 10° NW
APEX 4.2 22:48:05 62° SSE 22:48:58 73° ESE 22:55:36 10° NNE
Cosmos 1331 Rocket 3.8 22:44:51 10° NNW 22:50:07 88° ENE 22:50:32 77° SSE
Cosmos 1666 Rocket 3.7 22:50:45 65° NE 22:50:45 65° NE 22:54:45 10° NNE
Cosmos 2219 Rocket 2.7 22:50:12 10° NW 22:55:30 45° WSW 22:56:08 43° SW
Gblst 52 Del rocket 4.5 22:50:52 10° WNW 22:57:08 76° SSW 22:58:44 55° SE
Terra 3.8 22:57:53 17° WSW 22:59:02 18° W 23:02:20 10° NW
Spot 4 3.8 23:03:05 76° WSW 23:03:07 76° WSW 23:07:58 10° NNW
SL-16 R/B 3.7 23:02:24 10° N 23:07:19 29° NE 23:09:38 22° E
Meteor 1-25 Rocket 4.5 23:06:07 49° SW 23:07:20 61° WNW 23:12:51 10° N
Meteor 1-18 Rocket 4.1 23:04:12 10° NNW 23:10:04 87° W 23:10:44 71° S
SL-08 R/B 4.3 23:11:22 64° S 23:12:23 85° E 23:18:34 10° N
ATLAS 5 CENTAUR R/B 2.4 23:08:29 10° NW 23:14:05 60° WSW 23:14:35 58° SW
Cosmos 1862 Rocket 3.8 23:10:21 10° N 23:14:06 65° N 23:14:06 65° N
Okean 1 4.2 23:11:59 10° NNW 23:15:05 45° NW 23:15:05 45° NW
SL-08 ROCKET BODY 4.4 23:19:00 59° SW 23:20:08 76° W 23:26:20 10° N
COSMOS 2428 3.6 23:18:12 10° NW 23:23:16 34° WSW 23:23:31 34° WSW
NOSS 2-2 (C) 4.5 23:18:09 10° NW 23:23:29 76° NE 23:25:11 52° ESE
Cosmos 1707 Rocket 4.5 23:19:24 10° NNW 23:23:04 40° WNW 23:23:04 40° WNW
Meteor 2-4 Rocket 3.6 23:18:23 10° N 23:24:22 85° E 23:24:59 72° SSE
Cosmos 1666 3.9 23:26:25 40° NNE 23:26:25 40° NNE 23:29:00 10° NNE
Cosmos 1703 Rocket 4.4 23:25:58 10° N 23:29:38 42° NE 23:29:38 42° NE
Cosmos 1709 Rocket 4.3 23:30:39 48° ESE 23:31:28 50° E 23:37:36 10° NNE
ALOS 2 3.2 23:36:46 51° WNW 23:36:46 51° WNW 23:40:25 10° NNW
Cosmos 1992 Rocket 4.5 23:31:03 10° NNW 23:36:09 50° ENE 23:36:41 48° E
Meteor 1-5 Rocket 4.1 23:35:45 76° SSE 23:36:13 85° E 23:42:08 10° NNE
Cosmos 909 Rocket 4.2 23:36:15 58° SE 23:36:59 61° ESE 23:44:27 10° NE
Cosmos 1745 Rocket 3.9 23:39:17 67° SSW 23:40:13 86° W 23:46:34 10° N
Cosmos 2219 3.1 23:42:23 79° SSE 23:42:39 82° ESE 23:48:26 10° NNE
Cosmos 1302 Rocket 4.2 23:40:42 10° NNW 23:45:34 60° W 23:45:34 60° W
Cosmos 1269 Rocket 4.1 23:47:42 68° W 23:47:59 70° WNW 23:53:17 10° NNE
Timation 1 Rocket 4.2 23:51:21 70° SE 23:51:36 71° ESE 23:57:35 10° NNE
Meteor 1-13 Rocket 4.2 23:46:10 10° N 23:51:56 70° ENE 23:52:26 66° ESE
Meteor 1-14 Rocket 4.5 23:51:46 53° WSW 23:52:27 57° WNW 23:58:02 10° N
